Weather History for Corpus Christi, TX

Change the Weather History Date:

Tuesday, July 2, 2013

  Actual Average Record
Temperature  
Mean Temperature 87 °F 83 °F  
Max Temperature 98 °F 92 °F 100 °F (1949)
Min Temperature 75 °F 75 °F 70 °F (1963)
Degree Days  
Heating Degree Days 0 0  
Month to date heating degree days 0 0  
Since 1 June heating degree days 0 0  
Since 1 July heating degree days 0 0  
Cooling Degree Days 22 18  
Month to date cooling degree days 43 36  
Year to date cooling degree days 1719 1399  
Since 1 June cooling degree days 701 558  
Growing Degree Days 38 (Base 50)    
Moisture  
Dew Point 64 °F    
Average Humidity 49    
Maximum Humidity 74    
Minimum Humidity 24    
Precipitation  
Precipitation T in 0.13 in 9.86 in (2007)
Month to date precipitation T 0.25  
Year to date precipitation 7.07 13.88  
Snow  
Snow 0.00 in - - ()
Month to date snowfall 0.0  
Since 1 June snowfall 0.0  
Since 1 July snowfall 0.0  
Snow Depth -    
Sea Level Pressure  
Sea Level Pressure 29.97 in    
Wind  
Wind Speed 6 mph (East)    
Max Wind Speed 16 mph    
Max Gust Speed 21 mph    
Visibility 10 miles    
Events      
T = Trace of Precipitation, MM = Missing Value Source: NWS Daily Summary

Daily Weather History Graph

Daily Weather History Graph

Search for Another Location

Airport:

Trip Planner

Search our weather history database for the weather conditions in past years. The results will help you decide how hot, cold, wet, or windy it might be!

Date:

Astronomy

Jul. 02, 2013 Rise Set
Actual Time 6:38 AM CDT 8:30 PM CDT
Civil Twilight 6:11 AM CDT 8:56 PM CDT
Nautical Twilight 5:39 AM CDT 9:28 PM CDT
Astronomical Twilight 5:05 AM CDT 10:02 PM CDT
Moon 2:27 AM CDT (7/2) 3:56 PM CDT (7/2)
Length of Visible Light 14h 44m
Length of Day
13h 51m
Waning Crescent, 26% of the Moon is Illuminated
Jul 2
Waning Crescent
Jul 8
New
Jul 15
First Quarter
Jul 22
Full
Jul 29
Last Quarter

Hourly Weather History & Observations

Time (CDT) Temp. Heat Index Dew Point Humidity Pressure Visibility Wind Dir Wind Speed Gust Speed Precip Events Conditions
12:51 AM 82.0 °F 87.9 °F 73.9 °F 76% 29.97 in 10.0 mi East 5.8 mph - N/A   Scattered Clouds
1:51 AM 82.9 °F 88.8 °F 73.0 °F 72% 29.97 in 10.0 mi East 5.8 mph - N/A   Mostly Cloudy
2:51 AM 82.9 °F 88.0 °F 72.0 °F 69% 29.96 in 10.0 mi East 5.8 mph - N/A   Overcast
3:51 AM 82.9 °F 87.5 °F 71.1 °F 67% 29.96 in 10.0 mi ENE 4.6 mph - N/A   Mostly Cloudy
4:51 AM 82.0 °F 86.7 °F 72.0 °F 71% 29.96 in 10.0 mi NNE 5.8 mph - N/A   Overcast
5:51 AM 82.0 °F 84.1 °F 66.0 °F 58% 29.97 in 10.0 mi NE 8.1 mph - 0.00 in   Mostly Cloudy
6:51 AM 82.0 °F 84.5 °F 66.9 °F 60% 29.99 in 10.0 mi Calm Calm - N/A   Mostly Cloudy
7:51 AM 80.1 °F 82.9 °F 69.1 °F 69% 30.00 in 10.0 mi North 5.8 mph - N/A   Scattered Clouds
9:51 AM 82.9 °F 85.0 °F 66.0 °F 56% 30.03 in 10.0 mi North 6.9 mph - 0.00 in   Scattered Clouds
10:51 AM 87.1 °F 88.3 °F 64.0 °F 46% 30.03 in 10.0 mi North 6.9 mph - N/A   Scattered Clouds
11:51 AM 91.9 °F 91.5 °F 60.1 °F 34% 30.02 in 10.0 mi NE 8.1 mph - N/A   Scattered Clouds
12:51 PM 93.0 °F 92.0 °F 57.9 °F 31% 30.01 in 10.0 mi Variable 3.5 mph - N/A   Scattered Clouds
1:51 PM 95.0 °F 94.4 °F 59.0 °F 30% 29.99 in 10.0 mi NNW 3.5 mph - N/A   Scattered Clouds
2:51 PM 93.9 °F 92.0 °F 55.0 °F 27% 29.96 in 10.0 mi Calm Calm - N/A   Scattered Clouds
3:51 PM 95.0 °F 92.5 °F 53.1 °F 24% 29.94 in 10.0 mi NNE 6.9 mph - N/A   Scattered Clouds
4:51 PM 93.0 °F 93.0 °F 61.0 °F 34% 29.94 in 10.0 mi ESE 11.5 mph 17.3 mph N/A   Scattered Clouds
5:51 PM 91.9 °F 91.5 °F 60.1 °F 34% 29.93 in 10.0 mi SSE 12.7 mph - N/A   Scattered Clouds
6:51 PM 91.0 °F 90.5 °F 60.1 °F 35% 29.93 in 10.0 mi SSE 11.5 mph - N/A   Partly Cloudy
7:51 PM 88.0 °F 87.6 °F 60.1 °F 39% 29.94 in 10.0 mi SSE 12.7 mph - N/A   Partly Cloudy
8:51 PM 84.0 °F 84.5 °F 62.1 °F 47% 29.95 in 10.0 mi South 8.1 mph - N/A   Partly Cloudy
9:51 PM 80.1 °F 81.9 °F 64.9 °F 60% 29.96 in 10.0 mi South 5.8 mph - N/A   Partly Cloudy
10:51 PM 78.1 °F - 66.0 °F 66% 29.98 in 10.0 mi SSW 4.6 mph - N/A   Partly Cloudy
11:51 PM 77.0 °F - 68.0 °F 74% 29.99 in 10.0 mi SSW 6.9 mph - N/A   Partly Cloudy